Weather History for Quincy Muni, Quincy, FL, FL

Change the Weather History Date:

Saturday, March 8, 2014

  Actual Average (KTLH) Record (KTLH)
Temperature  
Mean Temperature 50 °F 59 °F  
Max Temperature 69 °F 72 °F 88 °F (1951)
Min Temperature 32 °F 46 °F 25 °F (1971)
Degree Days  
Heating Degree Days 14    
Month to date heating degree days  
Since 1 July heating degree days  
Cooling Degree Days 0    
Month to date cooling degree days  
Year to date cooling degree days  
Moisture  
Dew Point 42 °F    
Average Humidity 76    
Maximum Humidity 100    
Minimum Humidity 43    
Precipitation  
Precipitation 0.00 in 0.21 in 4.86 in (1970)
Month to date precipitation 1.73  
Year to date precipitation 10.92  
Sea Level Pressure  
Sea Level Pressure 30.16 in    
Wind  
Wind Speed 1 mph (WSW)    
Max Wind Speed 9 mph    
Max Gust Speed -    
Visibility 9 miles    
Events      
T = Trace of Precipitation, MM = Missing Value Source: NWS Daily Summary

Daily Weather History Graph

Daily Weather History Graph

Search for Another Location

Airport:

Trip Planner

Search our weather history database for the weather conditions in past years. The results will help you decide how hot, cold, wet, or windy it might be!

Date:

Astronomy

Mar. 08, 2014 Rise Set
Actual Time 6:56 AM EST 6:41 PM EST
Civil Twilight 6:32 AM EST 7:05 PM EST
Nautical Twilight 6:04 AM EST 7:33 PM EST
Astronomical Twilight 5:36 AM EST 8:01 PM EST
Moon 12:02 PM EST (3/8) 1:14 AM EST (3/8)
Length of Visible Light 12h 33m
Length of Day
11h 45m
First Quarter, 51% of the Moon is Illuminated
Mar 8
First Quarter
Mar 16
Full
Mar 23
Last Quarter
Mar 30
New
Apr 7
First Quarter

Hourly Weather History & Observations

Time (EST) Temp. Dew Point Humidity Pressure Visibility Wind Dir Wind Speed Gust Speed Precip Events Conditions
12:15 AM 37.4 °F 37.4 °F 100% 30.08 in 9.0 mi Calm Calm - N/A   Clear
12:35 AM 37.4 °F 37.4 °F 100% 30.08 in 8.0 mi Calm Calm - N/A   Clear
12:55 AM 37.4 °F 37.4 °F 100% 30.08 in 8.0 mi Calm Calm - N/A   Clear
1:35 AM 37.4 °F 37.4 °F 100% 30.10 in 7.0 mi Calm Calm - N/A   Clear
1:55 AM 37.4 °F 35.6 °F 93% 30.10 in 6.0 mi Calm Calm - N/A   Clear
2:15 AM 37.4 °F 35.6 °F 93% 30.10 in 5.0 mi Calm Calm - N/A   Clear
2:35 AM 35.6 °F 35.6 °F 100% 30.11 in 7.0 mi Calm Calm - N/A   Clear
2:55 AM 35.6 °F 35.6 °F 100% 30.11 in 8.0 mi Calm Calm - N/A   Clear
3:15 AM 35.6 °F 35.6 °F 100% 30.11 in 7.0 mi Calm Calm - N/A   Clear
3:35 AM 35.6 °F 33.8 °F 93% 30.11 in 7.0 mi Calm Calm - N/A   Clear
3:55 AM 35.6 °F 33.8 °F 93% 30.12 in 7.0 mi Calm Calm - N/A   Clear
4:15 AM 35.6 °F 33.8 °F 93% 30.12 in 7.0 mi Calm Calm - N/A   Clear
4:35 AM 35.6 °F 33.8 °F 93% 30.12 in 9.0 mi Calm Calm - N/A   Clear
4:55 AM 33.8 °F 32.0 °F 93% 30.13 in 9.0 mi Calm Calm - N/A   Clear
5:15 AM 33.8 °F 32.0 °F 93% 30.13 in 8.0 mi Calm Calm - N/A   Clear
5:35 AM 33.8 °F 32.0 °F 93% 30.13 in 8.0 mi Calm Calm - N/A   Clear
5:55 AM 33.8 °F 32.0 °F 93% 30.14 in 9.0 mi Calm Calm - N/A   Clear
6:15 AM 32.0 °F 32.0 °F 100% 30.15 in 7.0 mi Calm Calm - N/A   Clear
6:35 AM 33.8 °F 32.0 °F 93% 30.16 in 7.0 mi Calm Calm - N/A   Clear
6:55 AM 33.8 °F 32.0 °F 93% 30.17 in 7.0 mi Calm Calm - N/A   Clear
7:15 AM 33.8 °F 32.0 °F 93% 30.18 in 7.0 mi Calm Calm - N/A   Clear
7:35 AM 35.6 °F 33.8 °F 93% 30.19 in 9.0 mi Calm Calm - N/A   Clear
7:55 AM 37.4 °F 35.6 °F 93% 30.20 in 7.0 mi Calm Calm - N/A   Clear
8:15 AM 39.2 °F 39.2 °F 100% 30.21 in 9.0 mi Calm Calm - N/A   Clear
8:35 AM 44.6 °F 42.8 °F 93% 30.22 in 10.0 mi Calm Calm - N/A   Clear
8:55 AM 48.2 °F 44.6 °F 87% 30.22 in 10.0 mi Calm Calm - N/A   Clear
9:15 AM 50.0 °F 44.6 °F 82% 30.22 in 10.0 mi Calm Calm - N/A   Clear
9:35 AM 51.8 °F 42.8 °F 71% 30.23 in 10.0 mi Calm Calm - N/A   Clear
9:55 AM 53.6 °F 44.6 °F 72% 30.23 in 10.0 mi SSE 3.5 mph - N/A   Clear
10:15 AM 55.4 °F 44.6 °F 67% 30.23 in 10.0 mi South 3.5 mph - N/A   Clear
10:35 AM 55.4 °F 44.6 °F 67% 30.23 in 10.0 mi Calm Calm - N/A   Clear
10:55 AM 59.0 °F 46.4 °F 63% 30.22 in 10.0 mi SE 4.6 mph - N/A   Clear
11:15 AM 59.0 °F 44.6 °F 59% 30.22 in 10.0 mi SSW 6.9 mph - N/A   Clear
11:35 AM 59.0 °F 44.6 °F 59% 30.22 in 10.0 mi Calm Calm - N/A   Clear
11:55 AM 60.8 °F 44.6 °F 55% 30.22 in 10.0 mi Calm Calm - N/A   Clear
12:15 PM 62.6 °F 46.4 °F 55% 30.21 in 10.0 mi East 3.5 mph - N/A   Clear
12:35 PM 62.6 °F 46.4 °F 55% 30.21 in 10.0 mi West 4.6 mph - N/A   Clear
12:55 PM 64.4 °F 46.4 °F 52% 30.20 in 10.0 mi Calm Calm - N/A   Clear
1:15 PM 64.4 °F 46.4 °F 52% 30.18 in 10.0 mi SE 4.6 mph - N/A   Clear
1:35 PM 64.4 °F 46.4 °F 52% 30.17 in 10.0 mi Calm Calm - N/A   Clear
1:55 PM 66.2 °F 46.4 °F 49% 30.16 in 10.0 mi Calm Calm - N/A   Clear
2:15 PM 66.2 °F 44.6 °F 46% 30.16 in 10.0 mi South 8.1 mph - N/A   Clear
2:35 PM 66.2 °F 46.4 °F 49% 30.15 in 10.0 mi West 4.6 mph - N/A   Clear
2:55 PM 68.0 °F 46.4 °F 46% 30.14 in 10.0 mi West 6.9 mph - N/A   Clear
3:15 PM 68.0 °F 46.4 °F 46% 30.14 in 10.0 mi Calm Calm - N/A   Clear
3:35 PM 68.0 °F 46.4 °F 46% 30.14 in 10.0 mi SW 4.6 mph - N/A   Partly Cloudy
3:55 PM 69.8 °F 46.4 °F 43% 30.14 in 10.0 mi WNW 6.9 mph - N/A   Clear
4:15 PM 68.0 °F 46.4 °F 46% 30.13 in 10.0 mi WNW 5.8 mph - N/A   Clear
4:35 PM 69.8 °F 46.4 °F 43% 30.13 in 10.0 mi West 8.1 mph - N/A   Clear
4:55 PM 68.0 °F 46.4 °F 46% 30.13 in 10.0 mi West 9.2 mph - N/A   Clear
5:15 PM 68.0 °F 48.2 °F 49% 30.13 in 10.0 mi NW 4.6 mph - N/A   Clear
5:35 PM 68.0 °F 48.2 °F 49% 30.13 in 10.0 mi North 3.5 mph - N/A   Clear
5:55 PM 66.2 °F 46.4 °F 49% 30.13 in 10.0 mi Calm Calm - N/A   Clear
6:15 PM 64.4 °F 46.4 °F 52% 30.14 in 10.0 mi North 3.5 mph - N/A   Clear
6:35 PM 62.6 °F 48.2 °F 59% 30.14 in 10.0 mi Calm Calm - N/A   Clear
6:55 PM 59.0 °F 48.2 °F 67% 30.14 in 10.0 mi Calm Calm - N/A   Clear
7:15 PM 57.2 °F 48.2 °F 72% 30.14 in 10.0 mi Calm Calm - N/A   Partly Cloudy
7:35 PM 55.4 °F 48.2 °F 77% 30.15 in 10.0 mi Calm Calm - N/A   Clear
7:55 PM 53.6 °F 48.2 °F 82% 30.15 in 10.0 mi Calm Calm - N/A   Scattered Clouds
8:15 PM 53.6 °F 48.2 °F 82% 30.16 in 10.0 mi Calm Calm - N/A   Scattered Clouds
8:35 PM 51.8 °F 48.2 °F 88% 30.17 in 10.0 mi Calm Calm - N/A   Partly Cloudy
8:55 PM 51.8 °F 48.2 °F 88% 30.18 in 10.0 mi South 4.6 mph - N/A   Scattered Clouds
9:15 PM 53.6 °F 48.2 °F 82% 30.19 in 9.0 mi Calm Calm - N/A   Partly Cloudy
9:35 PM 55.4 °F 48.2 °F 77% 30.20 in 10.0 mi SSW 3.5 mph - N/A   Scattered Clouds
9:55 PM 53.6 °F 48.2 °F 82% 30.21 in 10.0 mi Calm Calm - N/A   Mostly Cloudy
10:15 PM 53.6 °F 48.2 °F 82% 30.21 in 10.0 mi WSW 3.5 mph - N/A   Mostly Cloudy
10:35 PM 53.6 °F 48.2 °F 82% 30.21 in 10.0 mi WSW 5.8 mph - N/A   Partly Cloudy
10:55 PM 51.8 °F 48.2 °F 88% 30.21 in 10.0 mi Calm Calm - N/A   Clear
11:15 PM 48.2 °F 46.4 °F 93% 30.21 in 10.0 mi Calm Calm - N/A   Clear
11:35 PM 48.2 °F 46.4 °F 93% 30.20 in 10.0 mi Calm Calm - N/A   Clear
11:55 PM 46.4 °F 46.4 °F 100% 30.20 in 10.0 mi Calm Calm - N/A   Clear